Lid_Strength_Index
6 10 12 10 9 8 9 9 10 8 6 7 8 8 7 6 6 6 6 6 5 5 3 3 2 2 2 1 2 1 1 1 1 1 2 2 2 1 1 0 0 0 -0 -0
9 11 8 7 7 8 8 10 10 8 6 8 8 8 7 6 6 6 6 6 5 5 4 3 3 2 2 2 2 2 2 1 1 1 1 1 1 1 0 0 0 -0 0 0
10 8 6 7 8 9 10 11 10 9 7 8 8 10 8 6 6 5 5 5 5 5 5 4 3 3 2 2 2 2 1 1 1 1 1 1 1 1 1 1 1 0 0 -0
8 7 7 8 8 9 13 8 7 6 10 13 9 14 11 8 7 6 6 5 5 5 4 4 3 3 3 2 2 2 1 1 1 1 1 2 2 3 2 1 1 0 0 0
9 8 9 9 8 8 10 7 7 8 11 12 11 13 11 8 9 8 6 6 5 4 4 4 3 3 2 2 2 2 1 1 1 1 1 2 2 2 1 1 1 1 0 0
8 6 7 8 7 7 6 8 10 11 11 15 11 13 13 11 9 8 6 5 5 4 4 4 3 3 2 2 2 2 2 2 1 1 1 1 2 2 2 2 2 1 1 0
10 10 8 7 9 7 9 12 15 16 18 18 11 12 12 8 7 7 6 6 5 5 4 4 4 3 3 3 2 2 2 2 1 1 1 1 2 1 2 2 2 2 1 1
11 13 9 7 9 10 10 12 14 17 19 16 10 13 11 7 6 6 5 5 4 5 4 4 4 3 3 3 2 2 2 2 2 2 2 1 1 1 1 1 1 1 1 1
11 10 7 7 7 8 10 12 10 13 14 14 12 11 8 6 6 6 6 6 5 5 4 4 4 3 3 3 2 2 2 2 2 2 1 1 1 1 1 1 1 1 1 0
10 12 8 8 7 7 8 9 13 12 16 18 14 13 13 10 9 8 8 7 6 5 5 4 4 3 3 2 2 2 2 2 2 1 1 1 1 1 1 1 1 1 1 0
9 11 10 8 10 11 10 12 10 11 12 16 18 15 10 10 9 8 8 7 6 5 5 4 4 3 3 2 2 2 2 2 2 2 1 1 1 1 1 1 1 1 1 1
9 11 12 11 8 8 10 11 10 13 14 13 13 15 8 8 8 7 8 6 6 5 5 4 4 3 3 3 3 3 2 2 2 1 1 1 1 1 1 1 1 1 1 1
9 11 14 12 11 9 11 10 11 11 11 14 15 15 7 7 8 7 8 7 6 6 5 4 4 4 4 3 3 5 2 3 2 1 2 2 2 2 2 1 1 1 2 1
5 11 12 14 13 11 11 10 11 13 15 15 14 13 10 9 9 8 7 6 6 6 5 5 4 4 4 3 3 3 2 2 2 2 2 2 2 2 1 1 1 1 1 1
9 12 11 10 9 9 10 10 11 13 14 14 13 13 11 9 8 7 7 6 6 6 5 5 5 4 4 3 3 3 2 2 2 2 2 2 2 1 1 1 1 1 1 1
8 11 10 11 8 9 9 9 9 9 9 11 10 12 8 7 6 7 7 6 6 6 5 5 4 4 4 3 3 3 3 2 2 2 2 2 2 2 2 1 1 1 1 1
9 10 12 14 10 10 12 10 9 9 8 9 12 10 7 8 7 7 7 6 6 5 5 5 4 4 4 3 3 3 2 2 2 2 2 2 2 2 2 1 2 2 2 1
10 11 11 13 12 17 11 7 7 8 8 8 8 8 7 7 6 6 5 6 6 5 4 4 4 4 3 3 2 2 2 2 2 2 2 2 3 3 3 3 2 2 1 2
8 10 12 14 14 11 10 8 9 10 10 7 8 7 6 6 6 6 4 5 5 5 4 4 3 3 3 3 2 2 2 3 3 3 3 3 4 4 5 5 4 4 3 2
8 8 11 13 16 16 11 7 6 7 13 7 6 7 7 6 10 8 5 4 4 3 3 3 3 3 3 3 2 3 3 3 3 3 2 2 2 3 4 5 5 4 2 4
11 12 13 13 14 12 8 6 6 13 13 7 6 7 7 8 7 6 4 4 4 3 3 3 3 3 3 2 3 3 3 3 2 2 2 2 2 2 4 6 6 4 2 2
12 13 13 13 15 16 6 7 11 9 7 6 6 6 7 6 5 5 4 4 4 4 3 3 3 3 3 2 3 3 3 2 2 2 2 2 2 2 2 5 6 6 6 4
12 10 11 11 12 7 6 7 6 5 7 7 6 5 6 6 5 5 5 4 4 4 3 3 3 3 3 2 2 3 3 2 2 2 3 2 2 2 2 2 4 4 5 5
8 7 10 9 8 7 6 5 5 5 6 5 5 5 5 5 5 5 4 4 4 3 4 3 3 3 3 2 2 2 2 2 2 2 3 2 2 2 2 2 2 2 3 3
8 8 9 9 8 7 6 6 5 5 4 4 4 4 4 5 5 4 5 4 4 3 3 3 4 3 3 2 2 2 2 2 2 3 2 2 2 3 2 2 3 2 5 4
7 9 10 12 8 8 7 5 4 5 5 4 5 5 4 4 4 4 4 4 4 4 3 3 3 3 3 3 2 2 2 2 2 3 3 2 2 3 3 3 3 8 8 10